TimeCST,TemperatureF,Dew PointF,Humidity,Sea Level PressureIn,VisibilityMPH,Wind Direction,Wind SpeedMPH,Gust SpeedMPH,PrecipitationIn,Events,Conditions,WindDirDegrees,DateUTC
12:53 AM,37.0,33.1,86,30.04,10.0,Calm,Calm,-,N/A,,Clear,0,2014-02-28 06:53:00
1:53 AM,36.0,32.0,86,30.03,10.0,Calm,Calm,-,N/A,,Clear,0,2014-02-28 07:53:00
2:53 AM,34.0,30.9,89,30.04,10.0,Calm,Calm,-,N/A,,Clear,0,2014-02-28 08:53:00
3:53 AM,34.0,30.9,89,30.03,10.0,Calm,Calm,-,N/A,,Clear,0,2014-02-28 09:53:00
4:53 AM,35.1,28.9,78,30.04,10.0,Calm,Calm,-,N/A,,Clear,0,2014-02-28 10:53:00
5:53 AM,34.0,28.9,82,30.06,10.0,Calm,Calm,-,N/A,,Clear,0,2014-02-28 11:53:00
6:53 AM,36.0,30.9,82,30.09,10.0,Calm,Calm,-,N/A,,Clear,0,2014-02-28 12:53:00
7:53 AM,46.0,35.1,66,30.09,10.0,ENE,5.8,-,N/A,,Clear,70,2014-02-28 13:53:00
8:53 AM,53.1,34.0,48,30.11,10.0,East,11.5,-,N/A,,Clear,100,2014-02-28 14:53:00
9:53 AM,55.0,34.0,45,30.11,10.0,ESE,17.3,-,N/A,,Clear,120,2014-02-28 15:53:00
10:53 AM,55.0,33.1,43,30.11,10.0,ESE,13.8,-,N/A,,Clear,110,2014-02-28 16:53:00
11:53 AM,55.9,33.1,42,30.11,10.0,ESE,13.8,20.7,N/A,,Clear,120,2014-02-28 17:53:00
12:53 PM,55.9,37.0,49,30.09,10.0,SSE,12.7,19.6,N/A,,Clear,150,2014-02-28 18:53:00
1:53 PM,57.0,41.0,55,30.06,10.0,SSE,15.0,-,N/A,,Clear,150,2014-02-28 19:53:00
2:53 PM,57.9,42.1,56,30.04,10.0,SE,13.8,-,N/A,,Clear,130,2014-02-28 20:53:00
3:53 PM,59.0,43.0,55,30.05,10.0,SE,8.1,-,N/A,,Clear,130,2014-02-28 21:53:00
4:53 PM,57.9,44.1,60,30.04,10.0,ESE,10.4,-,N/A,,Clear,110,2014-02-28 22:53:00
5:53 PM,57.9,44.1,60,30.06,10.0,ESE,8.1,-,N/A,,Clear,110,2014-02-28 23:53:00
6:53 PM,57.9,46.0,65,30.07,10.0,ESE,8.1,-,N/A,,Mostly Cloudy,120,2014-03-01 00:53:00
7:53 PM,57.9,46.9,67,30.07,10.0,SE,11.5,-,N/A,,Overcast,130,2014-03-01 01:53:00
8:53 PM,57.9,48.9,72,30.06,10.0,SE,16.1,-,N/A,,Clear,130,2014-03-01 02:53:00
9:53 PM,57.9,50.0,75,30.06,10.0,SE,16.1,-,N/A,,Clear,130,2014-03-01 03:53:00
10:53 PM,57.9,51.1,78,30.07,10.0,SE,12.7,-,N/A,,Clear,140,2014-03-01 04:53:00
11:53 PM,60.1,51.1,72,30.08,10.0,SSE,11.5,-,N/A,,Overcast,150,2014-03-01 05:53:00